Wind_Speed
31 28 26 26 26 27 26 24 23 23 22 20 19 18 17 15 14 13 12 12 12 11 11 10 9 9 9 8 8 8 8 7 7 8 8 8 8 7 7 7 6 6 6
35 34 32 30 29 28 29 28 27 25 24 23 22 21 20 18 17 15 15 14 14 13 13 11 11 10 10 9 9 9 8 8 8 9 9 9 8 8 8 7 7 7 6
38 37 36 35 33 31 30 30 29 28 27 26 25 24 23 22 20 19 17 17 16 15 15 14 13 12 11 11 10 10 9 9 9 9 9 9 9 9 9 8 8 7 7
39 38 38 37 36 35 33 32 31 30 29 28 28 27 26 25 24 22 20 19 18 17 16 16 15 14 13 12 12 11 11 10 10 10 10 10 10 10 9 9 9 8 8
38 39 38 39 39 38 36 35 33 32 30 30 30 29 28 27 26 24 23 22 21 19 19 18 18 17 16 15 14 13 13 12 12 11 11 11 11 11 10 10 10 10 9
37 37 38 39 39 39 37 37 36 34 32 31 31 32 31 29 29 27 26 25 24 22 21 21 20 19 18 17 16 16 15 14 14 13 13 12 12 12 11 11 11 11 11
34 36 37 39 40 40 40 39 38 38 35 33 32 32 31 31 30 30 29 27 27 26 24 23 22 21 20 20 19 18 17 17 16 15 15 14 13 13 13 13 12 12 12
32 33 35 37 40 41 41 41 40 39 38 37 34 33 33 33 32 32 31 30 30 29 27 26 25 24 23 22 21 20 19 19 18 17 17 16 16 15 15 14 14 14 14
29 31 33 35 37 39 40 41 42 41 40 39 38 35 34 33 33 34 33 32 32 31 30 29 29 27 26 25 24 22 21 21 20 19 18 18 17 17 17 17 17 16 16
26 29 31 33 35 37 39 41 42 43 43 41 41 39 36 36 35 35 34 34 35 34 33 32 32 30 29 27 26 25 24 23 23 22 21 20 20 19 20 19 19 19 18
23 26 29 31 33 35 37 40 41 42 43 43 43 42 40 38 36 35 35 35 35 36 34 34 34 33 32 31 29 28 27 26 25 24 23 22 22 22 21 21 21 21 20
20 23 26 28 30 32 34 37 39 40 42 44 44 44 43 41 39 37 36 36 36 37 37 36 35 35 34 33 32 31 30 29 29 28 27 26 25 24 23 23 23 23 23
17 19 22 25 27 29 31 34 36 38 40 42 44 45 45 44 42 39 38 37 37 38 38 37 36 36 35 34 34 34 33 32 31 30 29 28 28 27 26 25 25 25 24
15 17 20 22 25 27 29 31 33 35 38 41 43 45 44 44 43 41 39 38 38 38 38 38 37 37 36 36 36 35 35 34 33 32 31 30 30 29 28 28 27 27 26
14 16 18 20 23 25 27 29 31 34 36 39 41 43 44 44 44 44 41 40 39 38 38 38 38 38 37 37 37 37 36 35 35 35 33 33 32 30 30 29 29 29 29
12 14 16 18 20 22 25 27 29 32 34 37 38 40 42 44 44 44 44 42 40 40 39 38 38 38 39 38 37 37 37 36 36 35 34 34 33 33 32 31 31 31 31
12 12 13 14 16 18 21 24 26 28 31 33 35 37 39 42 43 43 44 43 42 41 41 40 39 39 39 38 38 38 37 37 37 36 36 35 35 34 34 33 33 32 31
14 13 13 12 13 14 16 19 21 24 27 29 31 34 36 39 40 41 42 42 42 41 41 41 40 39 38 38 38 38 38 38 37 37 37 37 36 36 36 35 35 34 33
16 14 12 11 11 11 12 14 17 19 22 25 27 29 32 34 37 38 39 40 41 40 40 40 40 39 38 37 38 39 38 38 38 38 37 37 36 36 36 36 36 36 35
20 18 15 13 10 9 8 9 11 14 17 20 23 26 28 29 32 34 36 37 38 38 37 38 38 38 38 37 38 38 38 39 38 38 37 37 37 36 37 37 36 35 35
22 20 18 16 12 9 7 6 7 10 12 15 17 20 24 26 28 29 32 34 35 36 37 37 37 36 37 38 38 39 38 37 38 37 36 36 35 35 35 35 34 34 33
23 22 20 18 15 11 9 7 5 4 7 10 13 16 19 21 25 26 28 30 31 32 34 35 36 36 36 37 37 38 37 36 36 36 35 34 34 34 35 34 34 33 33
25 23 22 20 17 14 12 9 6 4 3 6 9 12 15 17 20 24 26 27 28 28 29 31 32 32 34 34 34 35 36 36 34 34 34 34 34 32 32 31 32 31 31
25 24 23 21 19 17 14 12 10 6 3 3 5 7 10 13 14 18 20 23 24 23 25 26 28 29 30 31 32 32 32 33 33 32 32 32 31 32 32 31 30 28 27
25 24 24 23 21 19 17 14 13 9 6 3 2 4 6 8 10 12 14 18 20 21 22 23 25 26 27 27 28 29 30 31 31 31 30 31 30 30 29 28 28 27 26
24 23 23 22 21 20 18 17 15 12 9 6 2 2 4 6 8 9 10 13 16 18 19 19 20 22 23 24 25 26 26 27 28 29 29 29 28 28 27 26 25 24 24
Wind_Direction
252 252 248 243 241 240 239 240 242 241 241 240 239 236 234 232 231 230 225 220 216 212 206 205 204 202 198 194 194 193 195 193 189 186 186 187 189 194 194 196 201 207 214
252 251 250 246 246 245 241 240 241 241 241 240 239 237 234 232 231 231 227 224 220 216 212 209 207 205 203 201 200 201 202 200 197 194 194 198 202 204 206 209 211 213 222
252 250 248 247 246 247 244 242 242 241 241 240 239 237 235 234 232 230 229 226 223 220 217 213 211 209 208 207 206 205 206 204 201 200 202 206 209 209 213 218 219 223 230
251 249 247 246 246 246 245 243 241 241 242 242 239 237 236 235 234 232 229 225 225 224 221 219 216 213 212 212 210 210 210 209 206 207 208 209 211 213 218 222 226 231 238
250 248 247 246 245 244 244 242 241 242 244 242 240 239 238 235 234 232 229 227 226 226 225 223 221 218 216 215 215 215 215 215 214 214 215 215 218 220 224 229 233 238 244
248 247 245 244 244 243 242 242 241 241 242 241 240 240 238 236 234 231 229 228 228 229 228 226 224 221 220 218 218 220 221 223 222 222 223 224 226 229 231 234 237 241 246
248 246 245 243 242 242 242 242 241 240 240 241 240 239 237 235 234 232 231 230 230 229 228 228 226 224 223 222 222 223 225 226 227 227 229 230 231 234 236 240 242 246 249
247 245 245 244 242 241 240 240 240 240 239 239 237 236 236 235 234 234 234 233 231 229 229 229 228 227 225 224 224 225 227 228 229 231 233 235 236 237 240 244 246 250 254
248 246 246 244 243 242 242 241 240 239 239 239 237 236 235 234 234 234 234 233 232 231 230 230 230 229 228 227 227 227 229 230 232 234 236 239 240 241 243 245 248 252 257
251 248 247 246 245 244 243 242 241 240 240 239 237 235 235 235 234 234 235 234 233 232 231 231 232 231 231 230 230 230 231 233 235 236 238 241 243 245 247 248 251 255 258
255 252 249 248 247 247 245 244 244 241 240 238 238 236 235 235 235 234 234 235 234 233 233 233 233 233 233 233 233 233 234 235 237 239 240 242 245 247 249 251 254 257 259
260 255 252 250 249 248 246 245 245 243 241 239 238 237 236 235 233 234 234 235 235 234 234 235 235 234 235 235 235 236 237 238 239 241 242 244 247 249 250 252 254 257 260
267 261 256 253 251 249 248 246 245 243 241 240 238 237 236 236 234 234 233 234 235 234 234 235 236 236 236 236 237 237 238 239 240 242 244 246 248 250 252 254 256 258 261
277 269 263 258 255 253 250 248 246 244 241 239 238 237 237 237 236 235 236 235 235 235 236 235 236 237 238 238 239 240 240 241 242 242 245 247 249 250 253 255 258 259 262
289 279 271 264 260 256 253 250 247 245 242 241 239 238 238 238 238 237 238 237 235 236 237 236 235 237 238 239 241 241 242 243 244 245 247 247 249 250 251 254 258 260 263
309 294 282 273 265 259 255 251 248 245 244 241 240 238 237 237 238 239 240 238 237 237 237 237 238 239 238 239 241 242 243 244 246 246 247 248 249 251 253 255 258 261 262
326 314 299 285 273 266 260 255 250 246 244 241 239 237 237 237 238 239 240 239 239 239 239 239 240 240 239 240 240 242 243 244 246 246 247 249 251 252 254 256 258 260 262
344 331 318 303 289 278 268 257 250 245 243 240 237 236 236 237 238 239 239 240 240 240 240 240 239 239 240 240 240 242 244 245 246 247 248 251 252 252 254 255 257 259 262
2 355 344 330 312 294 278 264 253 245 241 239 237 235 234 234 235 238 239 241 241 241 240 240 239 239 240 240 240 242 244 246 248 248 250 251 251 252 254 256 257 259 261
12 9 2 352 338 320 298 273 257 248 243 239 239 237 234 234 233 236 238 240 240 242 241 239 239 241 241 241 241 242 244 246 247 249 249 250 251 252 255 256 256 258 260
16 15 14 10 3 351 337 307 273 255 245 238 238 236 237 236 233 234 236 238 240 241 242 241 241 240 241 243 244 244 245 247 247 248 250 250 250 252 254 255 256 257 259
20 19 19 17 14 10 3 351 323 273 249 238 237 236 237 235 233 234 236 237 240 241 241 241 241 242 243 242 242 244 244 245 247 248 250 251 251 253 253 256 257 258 259
22 22 22 22 22 22 20 15 7 342 281 249 240 237 235 235 233 233 233 234 237 239 240 240 240 241 242 243 244 245 245 244 245 246 246 247 249 251 253 255 257 258 258
23 25 26 27 28 29 29 25 20 10 347 282 252 234 233 232 232 232 233 234 235 235 238 240 240 240 240 240 243 243 241 242 244 245 246 247 249 250 252 254 254 253 253
23 25 27 29 30 31 31 28 25 23 17 352 269 242 236 228 227 228 230 230 231 231 231 234 237 238 239 239 240 240 239 240 242 243 245 246 247 248 250 252 251 251 251
21 24 26 28 30 30 31 30 29 29 28 21 352 265 230 225 222 223 223 226 224 223 223 226 231 234 235 235 236 238 240 240 240 240 240 242 243 244 245 247 249 251 251
Height
5863 5864 5866 5867 5869 5871 5873 5874 5876 5878 5879 5880 5882 5883 5885 5886 5887 5888 5889 5890 5891 5892 5893 5894 5895 5896 5897 5898 5900 5900 5901 5902 5903 5904 5905 5907 5908 5909 5910 5911 5912 5912 5913
5855 5858 5860 5861 5863 5865 5867 5869 5871 5873 5874 5876 5877 5879 5881 5883 5884 5885 5887 5888 5889 5890 5891 5892 5894 5895 5896 5897 5898 5900 5901 5901 5903 5904 5905 5906 5907 5908 5909 5910 5910 5911 5912
5847 5850 5853 5855 5856 5858 5860 5862 5864 5866 5869 5871 5872 5874 5876 5878 5880 5882 5883 5885 5886 5888 5889 5890 5892 5893 5894 5895 5897 5898 5899 5900 5901 5902 5904 5905 5906 5907 5908 5909 5909 5910 5910
5838 5841 5844 5847 5849 5851 5854 5856 5858 5860 5862 5865 5867 5869 5871 5873 5876 5878 5880 5881 5883 5885 5886 5888 5889 5891 5892 5894 5895 5896 5898 5899 5900 5901 5902 5903 5904 5905 5906 5907 5908 5908 5909
5829 5832 5835 5838 5841 5843 5846 5849 5851 5853 5856 5858 5861 5863 5865 5868 5871 5873 5875 5877 5879 5881 5883 5885 5886 5888 5890 5891 5893 5894 5896 5897 5898 5900 5901 5902 5903 5903 5904 5905 5906 5906 5907
5820 5823 5826 5829 5832 5835 5838 5841 5844 5846 5849 5852 5854 5857 5859 5862 5865 5868 5870 5873 5875 5877 5879 5881 5883 5885 5886 5888 5890 5892 5893 5895 5896 5897 5899 5900 5901 5902 5902 5903 5904 5904 5905
5812 5814 5817 5820 5823 5826 5829 5832 5836 5838 5841 5845 5847 5850 5853 5855 5859 5862 5865 5868 5870 5873 5875 5877 5879 5881 5883 5884 5886 5888 5890 5892 5893 5895 5896 5897 5898 5899 5900 5901 5901 5902 5902
5804 5806 5808 5811 5814 5817 5820 5823 5827 5830 5834 5837 5840 5842 5846 5849 5852 5855 5859 5862 5864 5867 5870 5872 5874 5877 5879 5880 5882 5884 5887 5888 5890 5892 5893 5894 5895 5896 5897 5898 5898 5899 5899
5796 5798 5800 5802 5805 5808 5811 5814 5818 5822 5825 5828 5832 5835 5839 5842 5845 5848 5851 5855 5858 5861 5864 5866 5869 5871 5874 5876 5878 5880 5882 5884 5886 5888 5889 5890 5891 5892 5893 5894 5895 5895 5896
5790 5791 5792 5794 5796 5799 5802 5805 5808 5812 5816 5820 5823 5827 5831 5834 5837 5841 5844 5847 5851 5854 5857 5860 5863 5866 5868 5871 5873 5875 5878 5880 5882 5883 5885 5886 5887 5888 5889 5890 5891 5891 5892
5783 5784 5785 5787 5789 5791 5793 5796 5799 5803 5807 5811 5814 5818 5822 5825 5829 5833 5837 5840 5844 5847 5850 5853 5857 5860 5862 5865 5868 5870 5872 5874 5876 5878 5880 5881 5882 5883 5884 5885 5886 5887 5887
5778 5778 5779 5780 5781 5783 5785 5787 5790 5793 5797 5801 5805 5809 5813 5817 5821 5825 5829 5832 5836 5839 5843 5846 5849 5853 5855 5858 5861 5864 5866 5869 5871 5873 5874 5876 5877 5878 5879 5880 5881 5881 5882
5772 5772 5772 5773 5774 5775 5777 5779 5781 5784 5787 5791 5795 5799 5803 5808 5812 5816 5820 5824 5827 5831 5834 5838 5842 5845 5848 5851 5854 5857 5859 5862 5864 5866 5868 5870 5871 5873 5874 5875 5875 5876 5876
5767 5767 5767 5767 5767 5768 5770 5771 5773 5775 5778 5782 5786 5790 5794 5799 5803 5808 5811 5815 5819 5822 5826 5830 5834 5837 5840 5843 5847 5849 5852 5855 5857 5860 5862 5863 5865 5866 5867 5868 5869 5870 5870
5763 5762 5761 5760 5761 5761 5762 5763 5764 5767 5769 5772 5776 5780 5785 5789 5794 5798 5802 5806 5811 5814 5819 5822 5825 5829 5832 5836 5839 5841 5844 5847 5850 5852 5854 5856 5857 5859 5860 5862 5862 5863 5863
5759 5757 5756 5755 5754 5754 5754 5755 5756 5758 5760 5763 5767 5771 5776 5780 5785 5789 5793 5797 5801 5806 5809 5813 5817 5820 5824 5827 5831 5833 5836 5839 5841 5844 5846 5848 5850 5851 5853 5854 5855 5856 5856
5756 5753 5751 5749 5748 5747 5747 5747 5748 5750 5752 5755 5759 5763 5767 5771 5776 5781 5785 5789 5793 5796 5800 5804 5808 5811 5815 5819 5822 5825 5828 5831 5833 5835 5838 5840 5842 5843 5845 5846 5847 5848 5848
5754 5750 5747 5745 5743 5742 5741 5741 5741 5743 5745 5748 5751 5755 5759 5763 5767 5772 5776 5780 5784 5788 5792 5796 5799 5803 5806 5810 5814 5817 5819 5822 5825 5827 5829 5831 5833 5835 5836 5838 5839 5839 5840
5753 5749 5745 5742 5740 5738 5737 5736 5736 5737 5739 5741 5744 5748 5752 5755 5759 5764 5767 5771 5775 5779 5783 5787 5791 5794 5798 5801 5804 5808 5810 5813 5816 5818 5820 5822 5824 5826 5827 5829 5830 5831 5831
5753 5748 5744 5740 5737 5735 5734 5733 5732 5733 5734 5736 5739 5742 5745 5748 5752 5756 5760 5764 5767 5771 5774 5779 5782 5785 5789 5792 5795 5798 5801 5804 5807 5809 5811 5813 5815 5817 5818 5820 5821 5822 5823
5754 5749 5744 5740 5737 5734 5732 5731 5730 5730 5731 5732 5734 5737 5740 5743 5746 5749 5753 5756 5760 5763 5766 5770 5774 5777 5780 5783 5787 5790 5793 5795 5797 5800 5803 5805 5807 5808 5809 5811 5812 5813 5814
5756 5751 5746 5741 5737 5734 5732 5730 5729 5728 5729 5729 5731 5733 5735 5737 5740 5743 5746 5750 5753 5756 5759 5763 5766 5769 5772 5775 5778 5781 5784 5786 5789 5792 5794 5796 5797 5799 5801 5802 5803 5804 5806
5759 5753 5748 5743 5739 5735 5733 5731 5729 5728 5727 5727 5728 5730 5731 5733 5735 5738 5740 5743 5746 5749 5752 5755 5758 5761 5765 5767 5770 5773 5776 5779 5781 5783 5785 5787 5789 5791 5793 5794 5795 5796 5797
5762 5756 5751 5746 5742 5738 5735 5732 5730 5728 5727 5727 5727 5727 5728 5729 5731 5733 5735 5738 5740 5743 5746 5749 5752 5755 5757 5759 5763 5765 5768 5770 5773 5775 5777 5779 5781 5783 5785 5786 5787 5788 5789
5765 5760 5755 5750 5745 5741 5738 5735 5732 5729 5727 5727 5726 5726 5727 5727 5728 5730 5731 5733 5735 5738 5740 5743 5746 5748 5750 5753 5755 5758 5760 5762 5765 5767 5770 5772 5774 5775 5777 5779 5780 5781 5783
5768 5763 5758 5754 5749 5745 5741 5738 5734 5731 5729 5727 5726 5726 5726 5726 5727 5728 5729 5730 5731 5733 5736 5738 5741 5743 5745 5747 5749 5751 5753 5756 5758 5760 5762 5765 5767 5768 5770 5772 5773 5775 5776